Tracking 35275 objects as of 8-Sep-2026
HD Live streaming from Space Station
objects crossing your sky now

THORAD AGENA D DEB

Track THORAD AGENA D DEB now!
10-day predictions


NORAD ID: 4950
Int'l Code: 1970-025GL
Launch date: April 8, 1970
Source: United States (US)
Launch site: AIR FORCE WESTERN TEST RANGE (AFWTR)

Note: This is SATELLITE DEBRIS
Your satellite tracking list
Your tracking list is empty




NASA's NSSDC Master Catalog

Two Line Element Set (TLE):
1 04950U 70025GL  26250.95618528 -.00000058  00000-0 -46343-4 0  9990
2 04950  99.8182 136.9941 0219516 188.9664 183.0219 13.10227023694347
Source of the keplerian elements: AFSPC